Weather History for Mercury, NV

Change the Weather History Date:

Thursday, November 8, 2012

  Actual Average Record
Temperature  
Mean Temperature 66 °F -  
Max Temperature 73 °F 62 °F 80 °F (2006)
Min Temperature 55 °F 40 °F 32 °F (2011)
Cooling Degree Days 1    
Growing Degree Days 16 (Base 50)    
Moisture  
Dew Point 32 °F    
Average Humidity 31    
Maximum Humidity 62    
Minimum Humidity 9    
Precipitation  
Precipitation 0.00 in - - ()
Sea Level Pressure  
Sea Level Pressure 29.62 in    
Wind  
Wind Speed 20 mph (SSW)    
Max Wind Speed 46 mph    
Max Gust Speed 63 mph    
Visibility 10 miles    
Events      
Averages and records for this station are not official NWS values.
T = Trace of Precipitation, MM = Missing Value Source: NWS Daily Summary

Daily Weather History Graph

Daily Weather History Graph

Search for Another Location

Airport:

Trip Planner

Search our weather history database for the weather conditions in past years. The results will help you decide how hot, cold, wet, or windy it might be!

Date:

Astronomy

Nov. 08, 2012 Rise Set
Actual Time 6:15 AM PST 4:40 PM PST
Civil Twilight 5:48 AM PST 5:07 PM PST
Nautical Twilight 5:17 AM PST 5:38 PM PST
Astronomical Twilight 4:46 AM PST 6:08 PM PST
Moon 12:24 AM PST (11/8) 1:15 PM PST (11/8)
Length of Visible Light 11h 19m
Length of Day
10h 24m
Waning Crescent, 32% of the Moon is Illuminated
Nov 8
Waning Crescent
Nov 13
New
Nov 20
First Quarter
Nov 28
Full
Dec 6
Last Quarter

Hourly Weather History & Observations

Time (PST) Temp. Dew Point Humidity Pressure Visibility Wind Dir Wind Speed Gust Speed Precip Events Conditions
12:52 AM 57.0 °F 28.0 °F 33% 29.73 in 10.0 mi ESE 9.2 mph - N/A   Clear
1:52 AM 54.0 °F 28.9 °F 38% 29.72 in 10.0 mi East 8.1 mph - N/A   Clear
2:52 AM 60.1 °F 26.1 °F 27% 29.71 in 10.0 mi Variable 4.6 mph - N/A   Clear
3:52 AM 57.9 °F 25.0 °F 28% 29.70 in 10.0 mi Calm Calm - N/A   Clear
4:52 AM 61.0 °F 24.1 °F 24% 29.71 in 10.0 mi Calm Calm - N/A   Clear
5:52 AM 64.9 °F 21.0 °F 19% 29.71 in 10.0 mi SW 12.7 mph 18.4 mph N/A   Clear
6:52 AM 66.0 °F 21.9 °F 19% 29.70 in 10.0 mi SSW 18.4 mph 28.8 mph N/A   Clear
7:52 AM 66.9 °F 23.0 °F 19% 29.70 in 10.0 mi SSW 29.9 mph 35.7 mph N/A   Clear
8:52 AM 68.0 °F 23.0 °F 18% 29.70 in 10.0 mi SSW 20.7 mph 39.1 mph N/A   Clear
9:52 AM 69.1 °F 23.0 °F 18% 29.69 in 10.0 mi SW 34.5 mph 48.3 mph N/A   Clear
10:52 AM 70.0 °F 24.1 °F 18% 29.67 in 10.0 mi SSW 38.0 mph 49.5 mph N/A   Clear
11:52 AM 72.0 °F 28.0 °F 20% 29.62 in 10.0 mi SSW 33.4 mph 42.6 mph N/A   Clear
12:52 PM 70.0 °F 28.9 °F 22% 29.59 in 10.0 mi SSW 25.3 mph 48.3 mph N/A   Clear
1:52 PM 72.0 °F 34.0 °F 25% 29.55 in 10.0 mi SSW 41.4 mph 57.5 mph N/A   Clear
2:52 PM 70.0 °F 36.0 °F 29% 29.54 in 10.0 mi SSW 26.5 mph 42.6 mph N/A   Clear
3:52 PM 68.0 °F 39.0 °F 35% 29.52 in 10.0 mi SSW 38.0 mph 50.6 mph N/A   Clear
4:52 PM 66.0 °F 39.9 °F 38% 29.46 in 10.0 mi SSW 43.7 mph 59.8 mph N/A   Clear
5:52 PM 64.9 °F 42.1 °F 43% 29.48 in 10.0 mi South 46.0 mph 63.3 mph N/A   Clear
6:52 PM 63.0 °F 42.1 °F 46% 29.50 in 10.0 mi South 42.6 mph 56.4 mph N/A   Clear
7:52 PM 61.0 °F 42.1 °F 50% 29.53 in 10.0 mi South 32.2 mph 47.2 mph N/A   Clear
8:52 PM 59.0 °F 41.0 °F 51% 29.54 in 10.0 mi SSW 38.0 mph 55.2 mph N/A   Clear
9:52 PM 59.0 °F 39.9 °F 49% 29.55 in 10.0 mi South 38.0 mph 49.5 mph N/A   Clear
10:52 PM 59.0 °F 41.0 °F 51% 29.55 in 10.0 mi SSW 27.6 mph 41.4 mph N/A   Clear
11:52 PM 55.9 °F 43.0 °F 62% 29.59 in 10.0 mi SW 27.6 mph 36.8 mph N/A   Scattered Clouds